Terminal Aerodrome Forecast
Issued by NWS Charleston, WV

Current Version | Previous Version | Text Only | Print | Product List | Glossary Off
Versions: 1 2 3 4 5 6 7 8 9 10 11 12 13 14 15 16 17 18 19 20 21 22 23 24 25 26 27

424
FTUS41 KRLX 240250 AAB
TAFBKW
TAF AMD
KBKW 240250Z 2403/2424 10010KT 6SM -RA OVC050
     FM240400 12010G18KT 4SM RA BR OVC005
     FM241200 10010G19KT 6SM -RA OVC015=

USA.gov is the U.S. government's official web portal to all federal, state and local government web resources and services.